Time,TemperatureF,DewpointF,PressureIn,WindDirection,WindDirectionDegrees,WindSpeedMPH,WindSpeedGustMPH,Humidity,HourlyPrecipIn,Conditions,Clouds,dailyrainin,SoftwareType,DateUTC
2013-01-16 00:02:00,30.0,12.0,30.05,North,2,0.0,2.0,46,0.00,,,0.00,,2013-01-16 07:02:00,
2013-01-16 00:12:00,30.0,12.0,30.05,North,2,0.0,2.0,46,0.00,,,0.00,,2013-01-16 07:12:00,
2013-01-16 00:22:00,30.0,12.0,30.05,North,2,0.0,1.0,47,0.00,,,0.00,,2013-01-16 07:22:00,
2013-01-16 00:32:00,29.0,14.0,30.05,North,2,1.0,3.0,52,0.00,,,0.00,,2013-01-16 07:32:00,
2013-01-16 00:42:00,29.0,14.0,30.05,North,2,1.0,3.0,52,0.00,,,0.00,,2013-01-16 07:42:00,
2013-01-16 00:52:00,29.0,14.0,30.05,North,2,0.0,0.0,52,0.00,,,0.00,,2013-01-16 07:52:00,
2013-01-16 01:02:00,29.0,14.0,30.06,North,2,0.0,2.0,52,0.00,,,0.00,,2013-01-16 08:02:00,
2013-01-16 01:12:00,29.0,14.0,30.06,North,2,0.0,2.0,52,0.00,,,0.00,,2013-01-16 08:12:00,
2013-01-16 01:22:00,30.0,13.0,30.05,North,2,0.0,1.0,48,0.00,,,0.00,,2013-01-16 08:22:00,
2013-01-16 01:32:00,30.0,14.0,30.06,North,2,0.0,0.0,50,0.00,,,0.00,,2013-01-16 08:32:00,
2013-01-16 01:42:00,30.0,14.0,30.06,North,2,0.0,0.0,50,0.00,,,0.00,,2013-01-16 08:42:00,
2013-01-16 01:53:00,30.0,14.0,30.06,North,2,0.0,0.0,51,0.00,,,0.00,,2013-01-16 08:53:00,
2013-01-16 02:02:00,29.0,14.0,30.07,North,2,0.0,3.0,53,0.00,,,0.00,,2013-01-16 09:02:00,
2013-01-16 02:12:00,29.0,14.0,30.07,North,2,0.0,3.0,53,0.00,,,0.00,,2013-01-16 09:12:00,
2013-01-16 02:22:00,28.0,13.0,30.08,North,2,2.0,2.0,52,0.00,,,0.00,,2013-01-16 09:22:00,
2013-01-16 02:32:00,28.0,14.0,30.09,North,2,0.0,1.0,55,0.00,,,0.00,,2013-01-16 09:32:00,
2013-01-16 02:42:00,28.0,14.0,30.09,North,2,0.0,1.0,55,0.00,,,0.00,,2013-01-16 09:42:00,
2013-01-16 02:53:00,27.0,13.0,30.08,North,2,0.0,2.0,54,0.00,,,0.00,,2013-01-16 09:53:00,
2013-01-16 03:02:00,27.0,14.0,30.08,North,2,0.0,2.0,57,0.00,,,0.00,,2013-01-16 10:02:00,
2013-01-16 03:12:00,27.0,14.0,30.08,North,2,0.0,2.0,57,0.00,,,0.00,,2013-01-16 10:12:00,
2013-01-16 03:22:00,28.0,13.0,30.08,North,2,0.0,3.0,53,0.00,,,0.00,,2013-01-16 10:22:00,
2013-01-16 03:32:00,30.0,15.0,30.08,North,2,0.0,3.0,52,0.00,,,0.00,,2013-01-16 10:32:00,
2013-01-16 03:42:00,30.0,15.0,30.08,North,2,0.0,3.0,52,0.00,,,0.00,,2013-01-16 10:42:00,
2013-01-16 03:53:00,30.0,15.0,30.08,North,2,0.0,1.0,52,0.00,,,0.00,,2013-01-16 10:53:00,
2013-01-16 04:02:00,28.0,14.0,30.09,North,2,0.0,2.0,54,0.00,,,0.00,,2013-01-16 11:02:00,
2013-01-16 04:12:00,28.0,14.0,30.09,North,2,0.0,2.0,54,0.00,,,0.00,,2013-01-16 11:12:00,
2013-01-16 04:22:00,28.0,14.0,30.07,North,2,0.0,2.0,54,0.00,,,0.00,,2013-01-16 11:22:00,
2013-01-16 04:32:00,27.0,13.0,30.07,North,2,0.0,2.0,55,0.00,,,0.00,,2013-01-16 11:32:00,
2013-01-16 04:42:00,27.0,13.0,30.07,North,2,0.0,2.0,55,0.00,,,0.00,,2013-01-16 11:42:00,
2013-01-16 04:53:00,27.0,13.0,30.08,North,2,2.0,2.0,55,0.00,,,0.00,,2013-01-16 11:53:00,
2013-01-16 05:03:00,27.0,13.0,30.09,North,1,1.0,2.0,56,0.00,,,0.00,,2013-01-16 12:03:00,
2013-01-16 05:13:00,27.0,13.0,30.09,North,1,1.0,2.0,56,0.00,,,0.00,,2013-01-16 12:13:00,
2013-01-16 05:22:00,27.0,13.0,30.08,North,1,1.0,3.0,56,0.00,,,0.00,,2013-01-16 12:22:00,
2013-01-16 05:33:00,28.0,14.0,30.07,North,2,0.0,3.0,56,0.00,,,0.00,,2013-01-16 12:33:00,
2013-01-16 05:43:00,28.0,14.0,30.07,North,2,0.0,3.0,56,0.00,,,0.00,,2013-01-16 12:43:00,
2013-01-16 05:53:00,28.0,14.0,30.09,NNE,25,0.0,4.0,54,0.00,,,0.00,,2013-01-16 12:53:00,
2013-01-16 06:03:00,27.0,13.0,30.09,NNE,26,1.0,4.0,56,0.00,,,0.00,,2013-01-16 13:03:00,
2013-01-16 06:12:00,27.0,13.0,30.09,NNE,26,1.0,4.0,56,0.00,,,0.00,,2013-01-16 13:12:00,
2013-01-16 06:22:00,27.0,14.0,30.10,NNE,26,2.0,3.0,57,0.00,,,0.00,,2013-01-16 13:22:00,
2013-01-16 06:33:00,27.0,14.0,30.10,NNE,25,2.0,2.0,57,0.00,,,0.00,,2013-01-16 13:33:00,
2013-01-16 06:43:00,27.0,14.0,30.10,NNE,25,2.0,2.0,57,0.00,,,0.00,,2013-01-16 13:43:00,
2013-01-16 06:53:00,28.0,14.0,30.08,NNE,27,0.0,2.0,56,0.00,,,0.00,,2013-01-16 13:53:00,
2013-01-16 07:03:00,27.0,13.0,30.10,NNE,26,0.0,0.0,56,0.00,,,0.00,,2013-01-16 14:03:00,
2013-01-16 07:12:00,27.0,13.0,30.10,NNE,26,0.0,0.0,56,0.00,,,0.00,,2013-01-16 14:12:00,
2013-01-16 07:23:00,27.0,14.0,30.09,NNE,26,0.0,3.0,58,0.00,,,0.00,,2013-01-16 14:23:00,
2013-01-16 07:32:00,28.0,14.0,30.10,NNE,26,0.0,2.0,55,0.00,,,0.00,,2013-01-16 14:32:00,
2013-01-16 07:42:00,28.0,14.0,30.10,NNE,26,0.0,2.0,55,0.00,,,0.00,,2013-01-16 14:42:00,
2013-01-16 07:53:00,28.0,14.0,30.11,NNE,26,0.0,1.0,54,0.00,,,0.00,,2013-01-16 14:53:00,
2013-01-16 08:03:00,29.0,14.0,30.11,NNE,26,0.0,2.0,52,0.00,,,0.00,,2013-01-16 15:03:00,
2013-01-16 08:12:00,29.0,14.0,30.11,NNE,26,0.0,2.0,52,0.00,,,0.00,,2013-01-16 15:12:00,
2013-01-16 08:23:00,29.0,14.0,30.11,NNE,26,0.0,2.0,52,0.00,,,0.00,,2013-01-16 15:23:00,
2013-01-16 08:33:00,30.0,15.0,30.11,NNE,26,0.0,2.0,52,0.00,,,0.00,,2013-01-16 15:33:00,
2013-01-16 08:43:00,30.0,15.0,30.11,NNE,26,0.0,2.0,52,0.00,,,0.00,,2013-01-16 15:43:00,
2013-01-16 08:53:00,31.0,15.0,30.12,NNE,25,0.0,1.0,51,0.00,,,0.00,,2013-01-16 15:53:00,
2013-01-16 09:03:00,33.0,15.0,30.14,NNE,26,0.0,0.0,48,0.00,,,0.00,,2013-01-16 16:03:00,
2013-01-16 09:12:00,33.0,15.0,30.14,NNE,26,0.0,0.0,48,0.00,,,0.00,,2013-01-16 16:12:00,
2013-01-16 09:22:00,34.0,16.0,30.13,NNE,26,0.0,1.0,47,0.00,,,0.00,,2013-01-16 16:22:00,
2013-01-16 09:33:00,37.0,16.0,30.13,NNE,26,0.0,3.0,41,0.00,,,0.00,,2013-01-16 16:33:00,
2013-01-16 09:42:00,37.0,16.0,30.13,NNE,26,0.0,3.0,41,0.00,,,0.00,,2013-01-16 16:42:00,
2013-01-16 09:53:00,39.0,17.0,30.14,NNE,26,1.0,2.0,40,0.00,,,0.00,,2013-01-16 16:53:00,
2013-01-16 10:03:00,41.0,16.0,30.14,NNE,26,0.0,1.0,36,0.00,,,0.00,,2013-01-16 17:03:00,
2013-01-16 10:12:00,41.0,16.0,30.14,NNE,26,0.0,1.0,36,0.00,,,0.00,,2013-01-16 17:12:00,
2013-01-16 10:23:00,42.0,16.0,30.14,NNE,25,0.0,2.0,34,0.00,,,0.00,,2013-01-16 17:23:00,
2013-01-16 10:33:00,44.0,17.0,30.13,NNE,25,0.0,2.0,33,0.00,,,0.00,,2013-01-16 17:33:00,
2013-01-16 10:43:00,44.0,17.0,30.13,NNE,25,0.0,2.0,33,0.00,,,0.00,,2013-01-16 17:43:00,
2013-01-16 10:53:00,45.0,14.0,30.14,NNE,26,0.0,2.0,28,0.00,,,0.00,,2013-01-16 17:53:00,
2013-01-16 11:03:00,46.0,16.0,30.14,NE,42,0.0,5.0,30,0.00,,,0.00,,2013-01-16 18:03:00,
2013-01-16 11:13:00,46.0,16.0,30.14,NE,42,0.0,5.0,30,0.00,,,0.00,,2013-01-16 18:13:00,
2013-01-16 11:23:00,46.0,16.0,30.12,NE,35,5.0,9.0,30,0.00,,,0.00,,2013-01-16 18:23:00,
2013-01-16 11:33:00,47.0,16.0,30.12,ENE,59,1.0,6.0,29,0.00,,,0.00,,2013-01-16 18:33:00,
2013-01-16 11:42:00,47.0,16.0,30.12,ENE,59,1.0,6.0,29,0.00,,,0.00,,2013-01-16 18:42:00,
2013-01-16 11:53:00,47.0,16.0,30.12,ENE,59,0.0,3.0,28,0.00,,,0.00,,2013-01-16 18:53:00,
2013-01-16 12:03:00,48.0,16.0,30.13,ENE,61,0.0,4.0,28,0.00,,,0.00,,2013-01-16 19:03:00,
2013-01-16 12:12:00,48.0,16.0,30.13,ENE,61,0.0,4.0,28,0.00,,,0.00,,2013-01-16 19:12:00,
2013-01-16 12:23:00,48.0,17.0,30.13,NE,56,0.0,3.0,29,0.00,,,0.00,,2013-01-16 19:23:00,
2013-01-16 12:33:00,49.0,16.0,30.13,ENE,59,0.0,4.0,27,0.00,,,0.00,,2013-01-16 19:33:00,
2013-01-16 12:43:00,49.0,16.0,30.13,ENE,59,0.0,4.0,27,0.00,,,0.00,,2013-01-16 19:43:00,
2013-01-16 12:53:00,49.0,17.0,30.12,ESE,103,0.0,4.0,28,0.00,,,0.00,,2013-01-16 19:53:00,
2013-01-16 13:03:00,49.0,17.0,30.12,ESE,103,0.0,1.0,28,0.00,,,0.00,,2013-01-16 20:03:00,
2013-01-16 13:12:00,49.0,17.0,30.12,ESE,103,0.0,1.0,28,0.00,,,0.00,,2013-01-16 20:12:00,
2013-01-16 13:23:00,49.0,16.0,30.11,ENE,62,0.0,5.0,27,0.00,,,0.00,,2013-01-16 20:23:00,
2013-01-16 13:33:00,50.0,16.0,30.11,ENE,57,0.0,2.0,25,0.00,,,0.00,,2013-01-16 20:33:00,
2013-01-16 13:42:00,50.0,16.0,30.11,ENE,57,0.0,2.0,25,0.00,,,0.00,,2013-01-16 20:42:00,
2013-01-16 13:53:00,50.0,17.0,30.11,ENE,63,0.0,3.0,27,0.00,,,0.00,,2013-01-16 20:53:00,
2013-01-16 14:03:00,50.0,17.0,30.12,ENE,67,1.0,3.0,27,0.00,,,0.00,,2013-01-16 21:03:00,
2013-01-16 14:12:00,50.0,17.0,30.12,ENE,67,1.0,3.0,27,0.00,,,0.00,,2013-01-16 21:12:00,
2013-01-16 14:22:00,50.0,16.0,30.13,South,181,0.0,5.0,26,0.00,,,0.00,,2013-01-16 21:22:00,
2013-01-16 14:33:00,50.0,16.0,30.13,SW,220,2.0,3.0,26,0.00,,,0.00,,2013-01-16 21:33:00,
2013-01-16 14:43:00,50.0,16.0,30.13,SW,220,2.0,3.0,26,0.00,,,0.00,,2013-01-16 21:43:00,
2013-01-16 14:53:00,50.0,17.0,30.13,WSW,242,1.0,2.0,27,0.00,,,0.00,,2013-01-16 21:53:00,
2013-01-16 15:02:00,50.0,18.0,30.13,SSW,206,1.0,6.0,28,0.00,,,0.00,,2013-01-16 22:02:00,
2013-01-16 15:12:00,50.0,18.0,30.13,SSW,206,1.0,6.0,28,0.00,,,0.00,,2013-01-16 22:12:00,
2013-01-16 15:23:00,50.0,18.0,30.14,SSW,211,0.0,3.0,28,0.00,,,0.00,,2013-01-16 22:23:00,
2013-01-16 15:33:00,49.0,17.0,30.14,SW,226,1.0,2.0,28,0.00,,,0.00,,2013-01-16 22:33:00,
2013-01-16 15:43:00,49.0,17.0,30.14,SW,226,1.0,2.0,28,0.00,,,0.00,,2013-01-16 22:43:00,
2013-01-16 15:53:00,49.0,17.0,30.16,SW,227,3.0,4.0,28,0.00,,,0.00,,2013-01-16 22:53:00,
2013-01-16 16:02:00,48.0,17.0,30.15,SW,226,1.0,3.0,29,0.00,,,0.00,,2013-01-16 23:02:00,
2013-01-16 16:12:00,48.0,17.0,30.15,SW,226,1.0,3.0,29,0.00,,,0.00,,2013-01-16 23:12:00,
2013-01-16 16:23:00,47.0,18.0,30.16,SW,224,0.0,6.0,31,0.00,,,0.00,,2013-01-16 23:23:00,
2013-01-16 16:32:00,46.0,19.0,30.16,SW,222,2.0,5.0,33,0.00,,,0.00,,2013-01-16 23:32:00,
2013-01-16 16:42:00,46.0,19.0,30.16,SW,222,2.0,5.0,33,0.00,,,0.00,,2013-01-16 23:42:00,
2013-01-16 16:53:00,45.0,19.0,30.16,SW,223,0.0,4.0,35,0.00,,,0.00,,2013-01-16 23:53:00,
2013-01-16 17:02:00,44.0,21.0,30.18,SW,223,2.0,5.0,39,0.00,,,0.00,,2013-01-17 00:02:00,
2013-01-16 17:12:00,44.0,21.0,30.18,SW,223,2.0,5.0,39,0.00,,,0.00,,2013-01-17 00:12:00,
2013-01-16 17:22:00,42.0,21.0,30.18,SW,223,2.0,2.0,43,0.00,,,0.00,,2013-01-17 00:22:00,
2013-01-16 17:32:00,41.0,21.0,30.20,SW,223,0.0,3.0,45,0.00,,,0.00,,2013-01-17 00:32:00,
2013-01-16 17:42:00,41.0,21.0,30.20,SW,223,0.0,3.0,45,0.00,,,0.00,,2013-01-17 00:42:00,
2013-01-16 17:52:00,40.0,21.0,30.20,SW,223,0.0,2.0,46,0.00,,,0.00,,2013-01-17 00:52:00,
2013-01-16 18:02:00,38.0,20.0,30.21,SW,223,1.0,3.0,48,0.00,,,0.00,,2013-01-17 01:02:00,
2013-01-16 18:12:00,38.0,20.0,30.21,SW,223,1.0,3.0,48,0.00,,,0.00,,2013-01-17 01:12:00,
2013-01-16 18:22:00,38.0,20.0,30.21,SW,223,0.0,3.0,48,0.00,,,0.00,,2013-01-17 01:22:00,
2013-01-16 18:32:00,38.0,19.0,30.21,SW,223,1.0,5.0,45,0.00,,,0.00,,2013-01-17 01:32:00,
2013-01-16 18:42:00,38.0,19.0,30.21,SW,223,1.0,5.0,45,0.00,,,0.00,,2013-01-17 01:42:00,
2013-01-16 18:52:00,39.0,19.0,30.23,SW,222,1.0,4.0,44,0.00,,,0.00,,2013-01-17 01:52:00,
2013-01-16 19:02:00,39.0,19.0,30.23,SW,220,3.0,3.0,44,0.00,,,0.00,,2013-01-17 02:02:00,
2013-01-16 19:12:00,39.0,19.0,30.23,SW,220,3.0,3.0,44,0.00,,,0.00,,2013-01-17 02:12:00,
2013-01-16 19:22:00,38.0,19.0,30.24,SW,220,2.0,4.0,45,0.00,,,0.00,,2013-01-17 02:22:00,
2013-01-16 19:32:00,37.0,19.0,30.24,SW,221,2.0,4.0,47,0.00,,,0.00,,2013-01-17 02:32:00,
2013-01-16 19:42:00,37.0,19.0,30.24,SW,221,2.0,4.0,47,0.00,,,0.00,,2013-01-17 02:42:00,
2013-01-16 19:52:00,37.0,19.0,30.24,SW,221,2.0,4.0,47,0.00,,,0.00,,2013-01-17 02:52:00,
2013-01-16 20:02:00,36.0,20.0,30.24,SSW,213,1.0,3.0,51,0.00,,,0.00,,2013-01-17 03:02:00,
2013-01-16 20:12:00,36.0,20.0,30.24,SSW,213,1.0,3.0,51,0.00,,,0.00,,2013-01-17 03:12:00,
2013-01-16 20:22:00,35.0,19.0,30.25,SSW,211,0.0,4.0,52,0.00,,,0.00,,2013-01-17 03:22:00,
2013-01-16 20:32:00,34.0,18.0,30.25,SSW,212,0.0,2.0,52,0.00,,,0.00,,2013-01-17 03:32:00,
2013-01-16 20:42:00,34.0,18.0,30.25,SSW,212,0.0,2.0,52,0.00,,,0.00,,2013-01-17 03:42:00,
2013-01-16 20:52:00,34.0,19.0,30.25,SSW,212,0.0,2.0,53,0.00,,,0.00,,2013-01-17 03:52:00,
2013-01-16 21:02:00,33.0,18.0,30.27,SSW,212,1.0,2.0,54,0.00,,,0.00,,2013-01-17 04:02:00,
2013-01-16 21:12:00,34.0,19.0,30.26,South,182,3.0,5.0,53,0.00,,,0.00,,2013-01-17 04:12:00,
2013-01-16 21:22:00,34.0,19.0,30.26,South,182,3.0,5.0,53,0.00,,,0.00,,2013-01-17 04:22:00,
2013-01-16 21:32:00,35.0,19.0,30.26,South,190,1.0,5.0,51,0.00,,,0.00,,2013-01-17 04:32:00,
2013-01-16 21:42:00,35.0,19.0,30.26,South,190,1.0,5.0,51,0.00,,,0.00,,2013-01-17 04:42:00,
2013-01-16 21:52:00,35.0,19.0,30.27,South,191,1.0,4.0,51,0.00,,,0.00,,2013-01-17 04:52:00,
2013-01-16 22:04:00,34.0,17.0,30.29,South,191,0.0,4.0,49,0.00,,,0.00,,2013-01-17 05:04:00,
2013-01-16 22:12:00,34.0,17.0,30.29,South,191,0.0,4.0,49,0.00,,,0.00,,2013-01-17 05:12:00,
2013-01-16 22:22:00,34.0,16.0,30.28,SSW,194,1.0,4.0,48,0.00,,,0.00,,2013-01-17 05:22:00,
2013-01-16 22:33:00,33.0,16.0,30.30,SW,219,0.0,5.0,50,0.00,,,0.00,,2013-01-17 05:33:00,
2013-01-16 22:42:00,33.0,16.0,30.30,SW,219,0.0,5.0,50,0.00,,,0.00,,2013-01-17 05:42:00,
2013-01-16 22:53:00,33.0,16.0,30.28,SW,219,0.0,3.0,49,0.00,,,0.00,,2013-01-17 05:53:00,
2013-01-16 23:02:00,32.0,15.0,30.29,SW,219,0.0,1.0,49,0.00,,,0.00,,2013-01-17 06:02:00,
2013-01-16 23:12:00,32.0,15.0,30.29,SW,219,0.0,1.0,49,0.00,,,0.00,,2013-01-17 06:12:00,
2013-01-16 23:22:00,31.0,15.0,30.30,SW,219,0.0,0.0,51,0.00,,,0.00,,2013-01-17 06:22:00,
2013-01-16 23:32:00,30.0,15.0,30.31,SW,219,0.0,1.0,52,0.00,,,0.00,,2013-01-17 06:32:00,
2013-01-16 23:42:00,30.0,15.0,30.31,SW,219,0.0,1.0,52,0.00,,,0.00,,2013-01-17 06:42:00,
2013-01-16 23:52:00,29.0,14.0,30.31,SW,219,2.0,2.0,53,0.00,,,0.00,,2013-01-17 06:52:00,